Estación de Tierras Nobles

Ultimos registro cada 15 minutos 35
Estación Fecha / Hora Temperatura Humedad Lluvia Velocidad Dirección Radiación Presion
35 Tierras Nobles 09-05-2026 08:30 7,5 70 0 1,8 215 23 1022,2
34 Tierras Nobles 09-05-2026 08:15 7,3 71 0 1,8 207 16 1022
33 Tierras Nobles 09-05-2026 08:00 7,2 71 0 3,6 213 12 1021,9
32 Tierras Nobles 09-05-2026 07:45 7,2 71 0 3,1 186 9 1022
31 Tierras Nobles 09-05-2026 07:30 7,2 71 0 5,8 203 0 1021,9
30 Tierras Nobles 09-05-2026 07:15 7,1 71 0 2,2 203 0 1022
29 Tierras Nobles 09-05-2026 07:00 6,9 72 0 1,8 205 0 1021,8
28 Tierras Nobles 09-05-2026 06:45 6,8 73 0 3,6 212 0 1021,8
27 Tierras Nobles 09-05-2026 06:30 6,8 73 0 2,2 203 0 1022
26 Tierras Nobles 09-05-2026 06:15 7,1 73 0 1,8 175 0 1022,1
25 Tierras Nobles 09-05-2026 06:00 7 74 0 3,6 205 0 1022,2
24 Tierras Nobles 09-05-2026 05:45 7,1 74 0 1,8 140 0 1022,5
23 Tierras Nobles 09-05-2026 05:30 7,1 74 0 3,1 188 0 1022,4
22 Tierras Nobles 09-05-2026 05:15 7,1 74 0 1,8 209 0 1022,4
21 Tierras Nobles 09-05-2026 05:00 7,3 74 0 1,3 209 0 1022,6
20 Tierras Nobles 09-05-2026 04:45 7,2 74 0 1,3 207 0 1022,4
19 Tierras Nobles 09-05-2026 04:30 7,3 74 0 1,3 199 0 1022,4
18 Tierras Nobles 09-05-2026 04:15 7,5 74 0 2,2 207 0 1022,5
17 Tierras Nobles 09-05-2026 04:00 7,6 74 0 2,2 201 0 1022,5
16 Tierras Nobles 09-05-2026 03:45 7,6 75 0 1,3 132 0 1022,5
15 Tierras Nobles 09-05-2026 03:30 7,7 75 0 2,7 180 0 1022,6
14 Tierras Nobles 09-05-2026 03:15 7,7 76 0 4,5 180 0 1022,7
13 Tierras Nobles 09-05-2026 03:00 7,8 76 0 2,2 180 0 1022,8
12 Tierras Nobles 09-05-2026 02:45 7,9 76 0 2,2 205 0 1022,9
11 Tierras Nobles 09-05-2026 02:30 8 76 0 2,2 209 0 1023,1
10 Tierras Nobles 09-05-2026 02:15 8,1 76 0 1,8 153 0 1023
9 Tierras Nobles 09-05-2026 02:00 8,1 76 0 3,6 213 0 1023,2
8 Tierras Nobles 09-05-2026 01:45 8,2 76 0 1,8 228 0 1023,2
7 Tierras Nobles 09-05-2026 01:30 8,2 76 0 1,8 197 0 1023,3
6 Tierras Nobles 09-05-2026 01:15 8,3 76 0 4 208 0 1023,1
5 Tierras Nobles 09-05-2026 01:00 8,4 76 0 1,3 196 0 1023,2
4 Tierras Nobles 09-05-2026 00:45 8,5 76 0 3,6 209 0 1023,1
3 Tierras Nobles 09-05-2026 00:30 8,7 76 0 2,2 205 0 1022,9
2 Tierras Nobles 09-05-2026 00:15 8,7 76 0 1,3 201 0 1022,8
1 Tierras Nobles 09-05-2026 00:00 8,8 75 0 2,2 214 0 1022,9